SCP
0 0 0 0 0 0 0 0 0 0 0 0 0 0 0 0 0 0 0 0 0 0 0 0 0 0 0 0 0 0 0 0 0 0 0 0 0 0 0 0 0 0 0 0
0 0 0 0 0 0 0 0 0 0 0 0 0 0 0 0 0 0 0 0 0 0 0 0 0 0 0 0 0 0 0 0 0 0 0 0 0 0 0 0 0 0 0 0
0 0 0 0 0 0 0 0 0 0 0 0 0 0 0 0 0 0 0 0 0 0 0 0 0 0 0 0 0 0 0 0 0 0 0 0 0 0 0 0 0 0 0 0
0 0 0 0 0 0 0 0 0 0 0 0 0 0 0 -0 0 0 0 0 0 0 0 0 0 0 0 0 0 0 0 0 0 0 0 0 0 0 0 0 0 0 0 0
0 0 0 0 0 0 0 0 0 0 0 0 0 0 -0 -0 0 0 0 0 0 0 0 0 0 0 0 0 0 0 0 0 0 0 0 0 0 0 0 0 0 0 0 0
0 0 0 0 0 0 0 0 0 0 0 0 0 0 0 -0 -0 0 0 0 0 0 0 0 0 0 0 0 0 0 0 0 0 0 0 0 0 0 0 0 0 0 0 0
0 0 0 0 0 0 0 0 0 0 0 0 0 0 0 0 0 -0 0 0 0 0 0 0 0 0 0 0 0 0 0 0 0 0 0 0 0 0 0 0 0 0 0 0
0 0 0 0 0 0 0 0 0 0 0 0 0 0 0 0 0 0 0 0 0 0 0 0 0 0 0 0 0 0 0 0 0 0 0 0 0 0 0 0 0 0 0 0
0 0 0 0 0 0 0 0 0 0 0 0 0 0 0 0 0 0 0 0 0 0 0 0 0 0 0 0 0 0 0 0 0 0 0 0 0 0 0 0 0 0 0 0
0 0 0 0 0 0 0 0 0 0 0 0 0 0 0 0 0 0 0 0 0 0 0 0 0 0 0 0 0 0 0 0 0 0 0 0 0 0 0 0 0 0 0 0
0 0 0 0 0 0 0 0 0 0 0 0 0 0 0 0 0 -0 0 0 0 0 0 0 0 0 0 0 0 0 0 0 0 0 0 0 0 0 0 0 0 0 0 0
0 0 0 0 0 0 0 0 0 0 0 0 0 0 0 0 0 0 0 0 0 0 0 0 0 0 0 0 0 0 0 0 0 0 0 0 0 0 0 0 0 0 0 0
0 0 0 0 0 0 0 0 0 0 0 0 0 0 0 0 0 0 0 0 0 0 0 0 0 0 0 0 0 0 0 0 0 0 0 0 0 0 0 0 0 0 0 0
0 0 0 0 0 0 0 0 0 0 0 0 0 0 0 0 0 -0 -0 -0 -0 -0 0 0 0 0 0 0 0 0 0 0 0 0 0 0 0 0 0 0 0 0 0 0
0 0 0 0 0 0 0 0 0 0 0 0 0 0 0 0 0 0 -0 -0 -0 0 0 0 0 0 0 0 0 0 0 0 0 0 0 0 0 0 0 0 0 0 0 0
0 0 0 0 0 0 0 0 0 0 0 0 0 0 0 0 0 0 0 0 0 0 0 0 0 0 0 0 0 0 0 0 0 0 0 0 0 0 0 0 0 0 0 0
0 0 0 0 0 0 0 0 0 0 0 0 0 0 0 0 0 0 0 0 0 0 0 0 0 0 0 0 -0 0 0 0 0 0 0 0 0 0 0 0 0 0 0 0
0 0 0 0 0 0 0 0 -0 0 0 0 0 0 0 0 0 0 0 0 0 0 0 0 0 0 0 0 0 0 0 0 0 0 0 0 0 0 0 0 0 0 0 0
0 0 0 0 0 0 0 0 -0 0 0 0 0 0 0 0 -0 0 0 0 0 0 0 0 0 0 0 0 0 0 0 0 0 0 0 0 0 0 0 0 0 0 0 0
0 0 0 0 0 0 0 0 0 0 0 0 0 0 -0 -0 -0 -0 -0 -0 0 0 0 0 0 0 0 0 0 0 0 0 0 0 0 0 0 0 0 0 0 0 0 0
0 0 0 0 0 0 0 0 0 0 0 -0 -0 -0 -0 -0 -0 -0 -0 -0 -0 0 0 0 0 0 0 0 0 0 0 0 0 0 0 0 0 0 0 0 0 0 0 0
0 0 0 0 0 0 0 -0 0 0 -0 -0 -0 -0 -0 -0 -0 -0 -0 -0 0 0 0 0 0 0 0 0 0 0 0 0 0 0 0 0 0 0 0 0 0 0 0 0
0 0 0 0 0 0 0 0 0 0 -0 -0 -0 -0 -0 -0 -0 -0 -0 -0 0 0 0 0 0 0 0 0 0 0 0 0 0 0 0 0 0 0 0 0 0 0 0 0
0 0 0 0 0 0 0 0 0 0 -0 -0 -0 -0 -0 -0 -0 -0 -0 -0 0 0 0 0 0 0 0 0 0 0 0 0 0 0 0 0 0 0 0 0 0 0 0 0
0 0 0 0 0 0 0 0 0 0 0 0 -0 -0 -0 -0 -0 -0 -0 -0 0 0 0 0 0 0 0 0 0 0 0 0 0 0 0 0 0 0 0 0 0 0 0 0
0 0 0 0 0 0 0 0 0 0 0 0 -0 -0 -0 -0 -0 0 0 0 0 0 0 -0 0 0 0 0 0 0 0 0 0 0 0 0 0 0 0 0 0 0 0 0
Wind_Speed
3 5 0 3 4 3 2 3 5 5 2 2 6 9 7 4 3 4 4 4 4 4 3 1 1 0 1 2 2 2 2 2 2 1 1 1 2 2 2 2 3 2 1 1
4 1 4 2 1 1 1 3 5 5 2 3 5 8 6 4 4 4 5 4 4 3 1 1 1 0 0 1 2 2 2 3 2 2 1 1 2 2 2 2 3 2 1 1
3 3 2 1 1 1 3 4 4 5 5 2 4 7 3 2 1 1 2 3 3 3 3 2 1 0 0 1 1 2 2 2 3 3 1 1 1 2 2 2 2 3 2 1
1 2 1 0 1 1 4 2 3 3 2 4 1 6 6 2 2 2 3 2 3 3 2 2 1 1 1 2 2 2 2 3 3 2 1 1 1 2 3 3 3 3 2 2
2 1 0 2 3 2 4 2 2 1 1 3 2 3 9 1 3 4 4 3 3 2 2 2 2 2 2 2 1 2 2 2 3 3 2 2 2 2 2 2 3 3 3 2
2 1 1 2 1 1 0 2 3 3 2 4 4 5 8 3 5 4 3 3 2 2 1 1 1 0 1 1 1 2 2 3 3 3 2 2 3 3 3 3 3 3 2 2
4 2 1 1 1 2 3 4 4 5 2 6 2 4 9 4 3 3 3 3 2 1 0 1 1 1 1 2 2 2 2 3 3 3 3 3 4 4 3 4 3 3 2 3
2 5 2 0 1 2 1 4 4 4 5 6 2 6 7 3 3 1 1 1 1 1 1 1 1 0 1 2 2 2 3 3 3 3 4 3 4 3 3 4 3 3 3 3
3 5 2 1 1 2 2 2 2 3 1 4 6 7 7 2 3 2 2 1 2 2 2 2 1 1 1 2 2 2 3 3 4 4 4 4 4 4 4 4 3 3 3 3
3 4 3 2 1 2 1 3 3 2 2 6 6 5 5 4 4 2 2 2 3 2 2 2 2 2 2 2 2 3 3 4 4 4 4 4 4 5 5 4 4 4 4 4
2 2 4 2 3 4 2 2 2 2 3 4 5 8 4 5 4 4 4 3 3 3 2 2 2 2 2 2 2 3 3 4 4 5 4 4 4 5 5 5 5 4 4 4
2 3 4 6 3 2 4 4 5 4 4 4 3 9 2 2 1 2 2 2 2 2 2 2 2 2 2 3 3 3 3 4 4 5 5 5 5 5 6 6 5 5 5 4
3 2 2 5 3 1 1 2 3 2 2 4 5 9 2 2 2 2 2 2 2 2 2 2 2 2 3 3 4 4 4 4 5 4 5 5 5 5 6 7 6 5 5 5
3 3 6 8 6 3 4 4 4 4 4 6 10 11 8 5 5 5 3 2 2 2 2 2 3 3 4 4 4 4 5 5 5 5 5 5 6 6 7 7 6 6 5 6
3 4 6 8 7 5 7 8 7 10 10 10 10 10 10 6 5 5 3 2 2 3 3 3 4 4 4 5 5 5 5 5 5 6 6 6 6 6 7 7 6 6 5 6
2 3 2 6 5 6 9 10 10 11 11 12 11 12 7 5 3 3 3 2 3 4 4 4 4 5 5 5 5 6 6 6 5 6 6 7 7 7 7 7 6 6 6 6
3 3 2 5 4 4 8 8 8 7 6 6 10 8 3 4 5 5 4 3 4 5 5 5 5 4 5 5 6 6 6 6 6 6 7 6 6 7 7 7 7 7 6 6
5 4 2 3 3 6 7 1 3 5 5 4 5 4 3 5 6 5 3 3 4 5 5 5 5 5 5 5 5 5 5 5 6 6 7 7 7 7 7 7 7 7 6 6
4 5 2 2 4 9 6 2 2 4 6 4 6 5 4 4 4 4 2 2 3 4 4 4 4 5 5 5 5 5 6 5 6 7 7 7 7 7 8 7 7 7 7 6
2 3 3 2 3 8 5 1 1 2 5 2 3 4 3 2 3 5 2 3 4 4 3 4 4 4 5 6 5 5 6 6 6 7 8 8 7 7 8 8 7 7 6 6
2 2 4 5 6 10 4 1 2 2 6 3 2 3 3 4 5 5 4 4 4 4 4 4 4 4 5 5 5 5 6 7 7 8 8 8 7 7 7 7 6 6 6 6
7 6 6 5 6 10 2 4 5 6 3 2 2 3 4 4 5 4 4 4 4 4 4 4 4 5 5 5 4 6 7 7 8 7 7 8 7 6 6 6 6 6 6 5
7 8 6 9 8 3 4 5 4 2 3 3 3 3 3 4 5 5 4 4 4 4 5 4 5 6 6 5 4 6 8 7 8 7 7 7 7 6 6 6 6 6 5 4
4 2 3 5 7 5 4 4 3 3 4 4 4 3 3 4 4 4 4 4 4 4 5 4 5 6 7 6 6 6 7 7 7 7 7 6 6 6 6 5 5 5 4 4
5 4 3 6 5 4 4 3 3 2 2 3 3 3 4 4 4 4 4 4 4 5 4 4 5 6 7 7 7 7 7 6 6 7 6 6 5 5 5 5 4 5 5 6
3 5 5 6 5 4 5 3 2 2 4 4 4 4 3 3 4 4 4 4 4 4 4 5 5 6 7 6 7 7 6 5 5 6 5 4 4 4 4 5 6 8 8 11
Wind_Direction
33 66 128 230 215 213 194 221 260 262 291 275 250 263 269 256 237 238 232 223 226 233 248 235 187 113 47 20 16 352 350 343 348 333 329 325 313 311 320 311 310 303 294 314
45 301 249 249 251 215 227 255 273 286 311 272 277 276 277 252 229 231 222 224 233 251 273 247 186 117 67 4 349 341 347 336 326 313 293 276 278 279 294 303 306 304 295 280
166 246 277 213 312 246 248 225 249 273 317 316 314 299 274 278 234 243 233 229 231 215 213 215 210 203 80 318 307 317 324 324 328 330 326 328 319 320 327 324 312 311 296 263
232 281 310 263 256 204 256 242 254 274 318 294 12 289 285 266 299 280 264 257 249 237 212 206 197 242 235 250 275 300 312 322 328 338 335 303 299 299 298 291 293 304 297 285
271 279 247 242 251 209 238 300 283 254 201 299 276 239 282 330 282 276 274 274 277 255 215 210 212 228 247 251 265 290 309 321 328 332 323 297 278 279 295 296 292 298 303 296
261 298 217 234 302 222 265 28 33 48 75 277 229 200 274 246 243 267 272 272 280 289 296 270 260 285 312 298 309 315 318 321 326 325 318 306 288 291 305 310 295 300 298 298
321 307 332 38 30 14 52 70 10 346 339 256 222 212 254 263 252 232 244 257 275 293 318 349 331 349 342 343 325 316 316 313 316 316 312 304 291 281 274 280 280 292 291 291
302 292 268 299 184 193 202 145 169 228 248 283 299 237 255 284 303 300 262 264 317 319 296 286 285 274 327 340 336 323 313 306 311 311 307 301 290 282 277 277 277 273 273 274
210 265 335 15 352 148 155 197 181 161 269 278 271 284 296 300 334 357 358 348 309 303 306 305 315 328 334 333 325 319 321 316 316 316 319 319 316 306 295 294 288 277 281 281
177 268 288 320 22 0 157 149 109 152 229 264 279 270 261 275 277 287 289 287 288 299 310 318 325 324 327 328 335 338 336 326 320 318 319 329 327 313 298 295 291 286 283 284
142 205 296 321 216 213 161 168 170 184 203 213 272 269 234 223 219 220 237 258 279 292 290 305 323 329 337 349 352 343 335 330 330 325 321 321 318 317 306 293 290 286 285 286
145 148 259 253 252 237 190 192 165 189 240 217 240 269 283 209 215 207 238 271 301 301 302 319 332 343 349 345 340 333 325 324 323 322 319 314 314 317 311 297 293 294 290 284
146 141 314 323 321 350 255 220 190 169 174 203 220 262 340 5 337 303 265 284 306 315 334 342 342 338 333 329 329 325 320 318 320 319 314 316 312 310 305 295 296 298 295 289
135 180 205 231 249 211 249 251 212 179 211 232 231 255 284 305 307 305 296 281 287 299 317 330 328 323 322 323 324 320 317 315 315 314 313 310 307 303 301 297 297 294 293 288
143 222 240 259 270 252 247 248 225 216 221 231 247 250 268 278 271 271 277 294 311 316 321 322 316 315 319 321 320 317 314 315 315 313 309 304 303 304 304 298 292 292 292 291
170 223 254 274 264 260 265 259 239 235 238 243 258 268 275 288 287 291 287 285 293 301 303 311 317 319 314 311 313 315 313 312 311 304 302 305 306 307 305 301 298 296 291 287
194 181 215 268 305 327 270 246 224 223 223 216 240 255 297 309 297 278 266 268 284 296 302 304 307 302 301 301 302 302 303 307 307 303 302 304 304 304 304 305 305 296 289 287
177 171 200 272 355 255 243 208 201 218 244 224 245 275 283 276 287 271 239 239 283 300 301 301 303 306 305 303 302 302 303 305 307 305 304 304 304 304 305 301 299 298 293 284
169 166 187 213 256 272 281 258 198 208 255 226 244 271 291 312 312 278 247 254 267 279 285 289 294 297 301 302 302 305 306 308 308 307 305 303 301 303 303 298 299 296 294 286
100 136 170 201 236 254 256 253 224 132 266 268 241 259 278 328 302 274 281 306 303 300 295 299 304 305 307 308 309 307 306 307 304 303 301 300 299 298 297 294 295 295 292 290
162 183 205 219 239 262 254 229 106 173 264 296 247 246 237 232 245 277 303 303 295 295 300 305 308 305 306 310 313 305 304 300 300 301 302 302 299 294 292 292 292 293 294 294
183 186 204 194 224 255 189 139 186 230 270 278 267 252 243 260 274 278 284 290 299 304 307 307 307 306 308 309 308 303 300 301 304 304 304 303 301 297 300 298 297 294 292 291
205 198 195 201 222 246 179 199 225 228 262 272 265 271 257 271 275 282 286 288 292 295 298 302 299 303 307 306 299 295 298 303 306 306 305 303 303 301 303 300 298 297 288 285
246 209 207 247 257 256 244 245 260 248 249 265 266 266 259 264 272 281 286 292 292 294 296 300 299 301 303 306 303 293 297 303 304 302 302 302 303 304 304 301 297 295 289 287
224 186 220 254 271 295 268 242 251 276 279 284 286 271 257 255 268 269 276 281 285 294 296 296 293 293 298 305 303 301 305 307 304 302 300 302 302 301 303 302 294 296 284 289
203 193 205 241 235 230 262 263 270 271 279 277 281 290 281 257 261 271 275 277 281 288 293 295 294 295 297 300 301 301 302 301 301 305 307 306 307 305 304 306 309 308 309 312